#timestamp,LO_Frequency,Hit,StdDev 
1520514015.1,286047000.4,P
1520514035.9,286046999.0,N
1520514055.7,286046999.0,N
1520514075.5,286047000.4,N
1520514095.4,286046999.0,N
1520514115.2,286046998.2,N
1520514135.0,286047000.7,N
1520514136.0,286047000.7,N
1520514155.8,286046998.3,N
1520514175.6,286046998.9,N
1520514195.5,286046998.5,N
1520514215.3,286046998.9,N
1520514235.1,286046997.4,N
1520514255.9,286046999.2,N
1520514275.7,286047000.6,N
1520514295.5,286046998.2,N
1520514315.4,286047002.2,N
1520514335.2,286047005.6,Y
1520514355.1,286047005.4,P
1520514356.0,286047005.4,N
1520514375.8,286047006.0,N
1520514395.6,286047001.8,N
1520514415.5,286047001.9,N
1520514435.3,286047000.3,N
1520514455.2,286047000.1,N
1520514475.9,286047002.8,N
1520514495.7,286047000.9,N
1520514515.6,286047000.2,N
1520514535.4,286047000.0,N
1520514555.2,286047002.5,N
1520514575.1,286047002.2,N
1520514576.0,286047002.2,N
1520514595.8,286047002.5,N
1520514615.7,286047000.5,N
1520514635.5,286046999.7,N
1520514655.3,286047002.1,N
1520514675.2,286047004.4,N
1520514695.0,286047002.3,N
1520514695.9,286047002.3,N
1520514715.7,286047000.5,N
1520514735.6,286047000.1,N
1520514755.4,286046998.7,N
1520514775.3,286046998.4,N
1520514795.1,286046998.2,N
1520514796.0,286046998.2,N
1520514815.8,286046998.4,N
1520514835.7,286047002.8,N
1520514855.5,286047002.8,N
1520514875.3,286047000.9,N
1520514895.2,286047000.2,N
1520514915.0,286047000.2,N
1520514915.9,286047000.2,N
1520514935.8,286047000.3,N
1520514955.6,286046999.3,N
1520514975.4,286046998.8,N
1520514995.3,286047000.8,N
1520515015.1,286047000.1,N
1520515035.8,286047002.8,N
1520515055.7,286046999.8,N
1520515075.5,286047000.8,N
1520515095.4,286047000.7,N
1520515115.2,286046998.1,N
1520515135.0,286046998.5,N
1520515135.9,286046998.5,N
1520515155.8,286046998.9,N
1520515175.6,286046999.0,N
1520515195.5,286046998.8,N
1520515215.3,286046998.2,N
1520515235.1,286047001.0,N
1520515255.9,286046999.2,N
1520515275.7,286046998.5,N
1520515295.5,286046999.1,N
1520515315.4,286046999.3,N
1520515335.2,286046998.2,N
1520515355.1,286047001.0,N
1520515356.0,286047001.0,N
1520515375.8,286047000.4,N
1520515395.6,286047000.5,N
1520515415.5,286047000.0,N
1520515435.3,286047000.0,N
1520515455.1,286047003.1,N
1520515475.9,286047003.5,N
1520515495.7,286047003.7,N
1520515515.6,286047006.0,Y
1520515535.4,286047003.7,P
1520515555.2,286046999.8,N
1520515575.1,286046999.7,N
1520515576.0,286046999.7,N
1520515595.8,286047001.2,N
1520515615.7,286047000.6,N
1520515635.5,286047000.5,N
1520515655.3,286047000.8,N
1520515675.2,286047002.1,N
1520515695.0,286047002.3,N
1520515695.9,286047002.3,N
1520515715.7,286047002.7,N
1520515735.6,286047000.0,N
1520515755.4,286047002.2,N
1520515775.3,286047000.3,N
1520515795.1,286046999.7,N
1520515796.0,286046999.7,N
1520515815.8,286046998.6,N
1520515835.7,286046998.2,N
1520515855.5,286046998.6,N
1520515875.4,286047000.2,N
1520515895.2,286047002.6,N
1520515915.0,286047000.2,N
1520515915.9,286047000.2,N
1520515935.8,286047002.1,N
1520515955.6,286047003.9,N
1520515975.4,286047004.4,N
1520515995.3,286047003.7,N
1520516015.1,286047003.6,N
1520516035.9,286047001.5,N
1520516055.7,286047001.4,N
1520516075.5,286047000.2,N
1520516095.4,286047001.2,N
1520516115.2,286047001.5,N
1520516135.0,286046999.8,N
1520516135.9,286046999.8,N
1520516155.8,286047004.2,N
1520516175.6,286047003.2,N
1520516195.5,286047001.5,N
1520516215.3,286047002.5,N
1520516235.1,286047003.3,N
1520516255.9,286047001.7,N
1520516275.7,286047002.1,N
1520516295.5,286047002.2,N
1520516315.4,286047001.7,N
1520516335.2,286046999.7,N
1520516355.1,286047001.6,N
1520516356.0,286047001.6,N
1520516375.8,286047001.8,N
1520516395.6,286047002.1,N
1520516415.5,286047001.8,N
1520516435.3,286047004.4,Y
1520516455.2,286046998.3,P
1520516475.9,286046996.6,N
1520516495.7,286046999.1,N
1520516515.6,286046996.7,N
1520516535.4,286047001.2,N
1520516585.3,286046998.6,E
1520516595.2,286046998.3,N
1520516615.0,286046998.1,P
1520516615.9,286046998.1,P
1520516635.8,286047001.2,Y
1520516655.6,286047002.8,P
1520516675.5,286047002.6,N
1520516695.3,286047002.6,N
1520516715.1,286047000.1,N
1520516735.9,286047002.7,N
1520516755.7,286047001.7,N
1520516775.5,286047003.9,N
1520516795.4,286047002.2,N
1520516815.2,286047001.6,N
1520516835.1,286047002.3,N
1520516836.0,286047002.3,N
1520516855.8,286047001.6,N
1520516875.6,286047001.3,N
1520516895.5,286047003.7,N
1520516915.3,286047001.5,N
1520516935.1,286047002.7,N
1520516955.9,286047000.5,N
1520516975.7,286047000.4,N
1520516995.6,286047000.7,N
1520517015.4,286047001.5,N
1520517035.2,286047001.5,N
1520517055.1,286047001.9,N
1520517056.0,286047001.9,N
1520517075.8,286046999.8,N
1520517095.6,286047000.9,N
1520517115.5,286047002.8,N
1520517135.3,286047002.1,N
1520517155.2,286046998.3,N
1520517175.9,286047001.0,N
1520517195.7,286046998.1,N
1520517215.6,286046998.7,N
1520517235.4,286046999.2,N
1520517255.2,286047000.8,N
1520517275.1,286047002.7,N
1520517276.0,286047002.7,N
1520517295.8,286046999.9,N
1520517315.7,286046998.6,N
1520517335.5,286046997.1,N
1520517355.3,286046997.0,N
1520517375.2,286046997.6,N
1520517395.0,286046998.5,N
1520517395.9,286046998.5,N
1520517415.8,286046999.3,N
1520517435.6,286046998.3,N
1520517455.4,286046996.7,N
1520517475.3,286046997.1,N
1520517495.1,286046997.0,N
1520517515.9,286047000.8,N
1520517535.7,286046997.7,N
1520517555.5,286046997.7,N
1520517575.4,286046996.2,N
1520517595.2,286046993.3,Y
